Theta_e
304 303 302 301 301 302 298 289 281 296 302 294 295 289 292 296 296 297 296 296 295 293 292 289 289 288 289 294 293 290 292 287 280 283 286 288 286 286 286 280 278 278 279 280
305 304 303 302 300 301 293 285 285 296 301 288 289 292 293 294 294 294 294 293 295 296 293 289 292 292 296 295 294 291 293 286 277 282 286 287 284 286 286 285 281 278 276 280
304 304 303 303 302 301 294 285 280 286 291 292 288 288 289 289 294 294 295 293 295 292 290 293 291 291 296 296 296 297 296 287 283 280 283 287 284 285 288 286 278 281 282 285
304 304 304 304 303 302 296 286 281 284 278 284 286 287 289 287 287 292 292 289 291 290 286 288 288 291 292 294 295 294 293 282 285 287 287 288 287 286 287 286 286 282 284 286
303 304 304 304 304 302 289 286 281 283 282 283 286 286 284 286 288 289 287 287 290 290 288 288 286 290 290 289 292 291 291 283 285 281 286 287 283 285 286 286 287 287 287 287
301 303 303 304 304 300 290 287 293 286 282 281 283 283 283 284 288 288 291 290 288 287 289 291 291 290 291 291 289 287 287 284 279 273 281 280 274 281 284 284 285 287 283 288
300 301 302 303 303 302 289 287 287 280 274 279 281 283 285 284 285 284 286 290 288 289 292 290 287 285 287 289 288 289 282 279 276 269 271 269 280 282 283 285 286 287 287 288
299 300 301 302 303 304 293 290 287 280 271 280 281 282 283 284 285 284 285 286 287 292 287 279 275 273 277 277 281 284 286 282 275 270 265 274 279 280 280 280 280 284 283 284
298 298 300 300 301 302 299 293 289 285 276 277 284 280 282 277 277 277 279 283 286 287 282 275 270 268 272 269 273 282 286 286 280 266 269 264 275 280 282 283 274 284 286 285
297 298 298 299 300 300 299 295 295 289 281 281 284 278 280 282 279 276 275 280 283 284 274 267 267 268 273 268 268 275 280 281 279 272 273 272 279 282 283 272 275 282 284 285
296 296 297 298 298 299 297 294 297 290 282 281 285 286 282 281 280 276 276 281 281 277 279 277 273 267 272 269 273 274 275 274 271 275 274 271 282 280 278 281 283 285 285 286
295 296 296 296 297 298 297 291 297 297 287 285 288 289 291 289 287 282 278 279 275 280 276 272 272 269 267 269 267 277 271 276 272 275 276 283 282 283 286 286 283 283 285 286
295 295 295 296 296 297 296 291 294 293 285 285 285 284 287 290 290 291 281 278 283 281 282 275 271 270 275 267 268 271 276 279 275 275 278 279 281 282 285 284 286 285 284 284
294 294 295 295 295 296 296 290 293 291 285 281 283 286 286 290 290 290 288 287 286 284 279 273 269 269 278 272 276 276 278 279 275 275 279 279 281 282 283 283 283 283 283 283
293 294 294 295 295 295 293 289 292 294 286 279 279 279 285 288 289 287 287 287 282 279 279 275 270 270 272 268 273 270 278 277 275 273 279 280 280 282 282 281 280 280 280 280
293 293 294 294 295 295 288 281 288 292 292 282 273 282 277 283 287 287 286 286 280 277 276 271 272 278 277 267 263 276 278 280 280 278 279 281 282 281 277 278 278 278 277 278
293 293 293 294 294 290 283 281 282 293 292 282 276 275 278 284 284 282 282 283 279 278 273 273 276 278 278 267 266 277 277 279 278 278 278 277 278 277 276 275 275 274 273 275
292 293 293 294 294 292 286 289 293 293 286 283 275 273 277 284 281 280 283 281 282 278 274 272 274 275 270 264 274 279 278 278 278 275 273 274 272 273 272 270 270 268 270 270
292 292 293 290 287 281 281 292 293 292 284 277 274 272 271 284 281 280 280 281 276 279 275 275 276 268 269 274 277 276 274 274 273 268 267 267 268 268 267 266 265 264 265 264
293 290 284 278 280 291 291 285 281 281 282 280 274 273 272 281 278 276 274 277 274 271 273 277 274 267 277 275 268 269 268 266 265 264 265 260 260 263 264 263 263 263 262 261
286 281 278 278 291 282 280 275 275 274 274 277 277 275 271 278 271 271 276 273 273 268 271 268 265 262 275 266 264 264 264 263 262 261 262 261 260 260 260 260 259 259 257 257
284 283 282 282 278 276 273 271 270 265 268 275 274 273 279 277 280 275 275 273 273 266 269 265 264 268 264 263 261 259 259 258 256 255 256 258 259 258 257 256 255 254 254 255
285 280 276 275 274 269 267 260 259 264 267 272 271 275 277 278 279 276 274 270 269 270 268 263 265 261 257 255 256 253 253 252 251 250 250 252 253 252 251 251 251 251 251 252
275 274 269 269 266 259 267 262 269 268 274 274 277 273 275 276 273 273 268 269 270 265 264 261 263 258 256 253 252 252 251 251 252 250 251 251 251 250 248 247 247 248 249 252
269 270 266 259 255 251 251 257 261 263 269 278 275 270 274 272 271 272 268 265 265 266 265 265 256 254 253 251 250 249 249 249 249 248 248 250 250 249 248 247 247 247 248 250
259 255 255 254 254 253 251 254 257 262 268 279 276 272 270 269 270 267 265 263 262 265 261 251 253 252 250 249 248 248 247 247 246 245 247 249 248 248 247 245 246 247 248 249
252 247 248 247 247 253 255 255 258 260 261 273 271 268 268 272 266 260 259 263 260 249 248 248 249 250 248 247 247 246 245 245 244 244 245 246 246 245 246 246 247 247 248 250
Wind_Speed
11 11 8 6 4 3 4 2 2 3 1 3 2 4 6 4 6 3 3 4 4 2 3 4 3 6 1 6 5 10 3 5 5 6 2 3 3 6 6 6 5 3 4 7
14 14 12 9 5 2 2 2 1 3 1 5 4 4 2 2 5 4 7 3 3 6 3 6 1 2 3 7 3 7 6 1 3 5 4 2 2 2 2 5 4 7 5 6
14 17 15 12 9 5 3 2 2 3 2 1 2 5 6 6 4 6 4 5 7 5 6 5 7 4 4 6 5 8 8 3 4 7 4 4 4 1 3 4 4 5 13 10
14 17 16 15 13 9 3 1 4 2 4 5 4 1 5 7 6 4 6 2 6 10 5 4 4 5 5 3 4 5 4 4 3 3 4 2 4 4 5 6 4 5 1 11
10 14 17 18 17 12 3 2 2 2 2 4 9 3 6 11 6 7 5 5 7 5 6 6 7 8 4 5 2 3 1 5 3 0 3 6 4 9 8 6 5 9 8 21
9 11 13 18 20 12 3 2 1 1 1 4 10 6 5 6 7 1 4 7 5 5 5 5 4 5 4 7 7 4 4 6 3 3 3 4 7 10 13 7 6 8 11 17
12 11 11 13 18 20 4 4 4 3 4 2 5 4 7 5 5 5 1 4 7 2 11 7 8 10 8 6 4 3 7 6 4 4 3 3 4 2 1 11 10 9 9 5
16 13 12 11 17 22 4 4 5 4 2 3 4 4 3 4 3 1 2 3 2 8 6 5 5 5 6 5 3 2 4 6 4 5 5 7 10 6 7 8 7 5 5 2
20 17 16 13 12 14 7 5 3 4 6 8 7 5 5 4 3 4 3 3 3 5 3 4 6 6 5 4 4 5 1 3 6 3 6 11 6 1 3 6 8 5 6 4
18 18 20 19 15 13 7 4 7 4 3 5 8 6 8 6 3 3 0 2 2 2 3 4 4 4 2 5 8 6 5 3 12 6 5 9 8 5 2 6 8 5 3 3
18 18 19 20 19 17 7 1 11 9 4 4 8 10 6 4 5 6 4 4 2 2 4 4 4 4 7 3 4 8 9 8 5 4 5 13 6 4 10 6 3 6 6 6
18 19 19 19 19 20 16 2 6 9 4 3 7 11 14 13 11 8 2 4 5 5 4 1 3 1 1 4 4 2 2 8 8 10 9 4 3 5 5 5 4 3 3 2
20 21 20 19 19 20 18 4 2 5 4 2 3 13 7 3 8 10 7 2 4 3 4 5 3 5 4 5 6 2 4 4 3 5 6 5 1 2 5 3 4 2 1 4
22 23 23 22 20 21 18 4 5 2 1 4 5 2 11 7 7 11 6 9 4 6 3 3 4 4 2 4 3 6 6 7 5 3 4 1 2 3 6 4 2 5 7 8
22 23 24 23 24 22 12 3 5 6 5 2 1 4 5 8 12 9 9 12 7 4 3 2 4 2 5 2 3 5 6 8 6 5 5 4 5 6 3 5 6 5 4 6
25 24 23 24 23 24 4 2 5 9 6 3 3 2 2 5 12 14 13 10 4 4 6 4 2 3 4 4 5 10 6 4 5 5 3 7 7 2 5 3 4 5 7 6
26 25 22 27 26 11 7 5 3 18 9 3 3 3 4 8 6 3 3 2 3 5 3 3 4 3 5 3 7 3 9 9 5 3 4 3 4 3 2 3 4 5 6 5
28 25 24 28 26 19 11 9 4 10 8 3 3 2 3 10 6 6 2 4 2 1 5 2 4 2 3 3 8 11 8 7 7 6 3 1 1 1 1 3 4 6 7 6
26 27 26 15 11 5 5 12 17 5 6 6 4 6 5 7 3 4 3 3 4 3 4 5 6 4 7 13 15 6 8 8 6 4 3 3 4 2 1 2 1 4 7 7
28 19 8 6 6 12 13 6 8 8 5 2 2 1 5 10 3 3 5 3 4 4 4 7 4 6 13 5 5 7 8 8 8 4 3 2 3 4 2 3 3 4 7 8
11 5 4 2 21 4 4 5 5 4 4 5 5 6 3 3 7 5 1 4 4 6 5 7 4 5 15 9 9 6 7 7 5 3 3 2 3 4 4 4 4 5 6 8
7 7 7 4 4 4 6 5 2 4 7 4 6 5 4 2 4 4 4 4 5 7 7 5 5 8 5 11 9 8 7 6 6 3 2 1 3 1 3 4 5 5 6 6
5 4 5 5 4 7 8 7 5 4 3 5 5 6 4 2 2 4 4 6 5 10 4 6 8 3 4 6 8 8 6 6 6 3 2 1 2 2 1 4 4 6 6 6
4 6 7 5 4 5 5 6 10 4 7 8 12 7 4 3 3 3 6 3 6 4 6 8 5 8 10 7 5 8 7 6 6 4 3 1 1 3 3 3 4 4 5 6
4 2 5 5 2 1 3 1 0 2 4 10 5 3 4 3 4 3 5 4 5 5 8 6 3 8 13 11 6 7 5 5 5 4 3 2 1 1 2 3 4 3 3 3
4 7 4 3 3 1 3 2 2 3 4 8 2 3 5 5 6 6 6 9 8 7 5 2 8 10 6 9 6 6 5 5 4 4 4 3 3 4 3 3 3 3 2 3
5 2 1 1 2 1 1 1 2 6 4 8 4 5 4 5 4 3 5 8 4 2 2 1 5 8 8 7 6 6 6 5 4 4 3 3 0 3 4 2 4 2 3 3
Wind_Direction
225 224 227 206 217 314 50 112 135 304 327 204 138 188 185 203 207 8 53 97 82 172 167 123 157 169 286 340 158 173 171 126 159 191 299 197 155 174 153 135 231 237 159 253
220 215 224 222 214 163 107 138 179 318 320 204 186 162 185 182 149 213 145 138 173 154 161 109 12 6 360 353 78 153 166 149 81 6 2 9 143 58 203 108 77 210 143 256
223 213 215 222 212 200 90 88 132 345 353 318 169 156 179 186 215 148 194 172 132 152 160 176 157 202 317 354 46 27 83 78 154 185 153 118 132 55 66 135 156 199 230 268
230 213 211 215 207 192 103 107 242 211 185 224 145 148 178 178 189 211 174 145 172 178 162 135 148 133 147 52 8 21 64 113 104 125 135 131 181 193 190 198 176 189 1 298
246 231 219 216 206 162 96 187 180 358 192 160 182 185 208 202 182 165 186 163 179 177 167 175 184 137 164 185 136 115 4 124 100 240 203 196 231 229 222 230 206 257 252 265
251 248 229 217 210 156 138 233 7 96 209 150 178 202 195 197 164 250 175 156 129 172 204 99 76 85 101 147 142 127 118 128 113 259 16 80 307 218 198 201 188 220 241 252
243 247 249 227 224 191 131 185 120 126 253 182 186 179 179 183 168 146 38 157 156 133 116 86 40 41 51 79 60 132 129 109 107 168 49 230 248 87 174 219 240 228 270 330
237 237 241 241 223 207 171 163 139 144 222 170 202 185 157 209 246 99 59 43 8 158 77 74 58 355 30 325 315 157 141 122 115 143 197 312 286 232 176 168 252 220 230 77
243 229 233 238 238 233 216 190 146 127 128 232 164 171 177 169 130 34 326 305 313 69 93 95 153 181 173 250 351 0 1 76 157 135 167 209 224 31 183 101 279 149 134 165
238 236 230 227 227 226 231 176 191 113 183 238 160 183 198 146 115 121 214 193 46 61 103 101 146 216 178 167 169 164 182 178 211 189 213 280 241 182 72 119 242 200 198 229
233 237 241 233 232 232 210 125 198 192 188 242 184 174 143 119 172 154 219 95 326 52 142 143 190 144 211 120 179 170 167 167 203 172 195 251 184 104 170 203 158 190 208 224
234 234 230 236 240 234 226 233 179 211 222 269 204 206 192 182 171 138 191 167 159 166 110 124 103 113 63 152 218 173 211 181 179 183 202 213 107 129 194 169 195 194 175 155
237 236 232 232 233 236 229 199 129 195 225 228 195 215 217 162 167 161 135 285 154 158 156 156 178 170 122 158 242 86 262 153 194 87 238 231 180 125 159 201 148 130 240 266
236 235 231 231 231 232 225 199 170 206 274 226 228 348 205 177 157 177 155 139 103 104 95 111 138 150 168 201 185 194 201 143 176 263 279 150 338 135 152 190 198 242 251 245
237 231 237 229 227 225 226 160 180 188 206 284 273 308 238 178 186 159 141 143 126 124 97 119 207 124 92 334 55 243 172 174 175 209 193 145 236 268 321 308 306 339 352 328
235 237 231 228 225 218 142 225 216 193 190 237 238 161 222 160 185 173 166 163 127 121 140 177 194 242 117 153 201 239 128 104 145 225 198 197 245 279 40 2 17 360 335 319
236 235 229 227 215 206 195 177 217 186 167 211 246 236 215 182 138 125 95 104 151 126 139 147 147 194 127 142 222 136 159 202 190 157 100 276 217 231 34 20 340 337 297 284
230 235 230 224 212 211 212 209 149 189 171 176 217 214 151 165 157 179 141 142 132 194 137 72 143 101 103 239 244 236 183 188 224 155 106 117 354 258 87 20 347 323 312 321
232 234 222 210 198 180 204 187 194 204 207 186 146 164 180 164 121 124 143 139 173 133 144 168 123 158 208 223 224 173 172 170 175 116 127 158 193 231 333 358 322 288 302 315
228 202 185 155 178 135 151 165 183 206 198 150 145 41 176 177 131 137 119 123 153 170 210 125 166 220 239 179 151 138 149 147 132 118 252 161 222 206 257 246 269 281 292 300
169 160 105 167 146 97 160 205 190 153 187 168 147 171 168 212 150 137 220 148 151 164 194 142 173 252 226 136 143 136 133 144 143 100 105 132 175 243 264 268 255 275 280 278
121 106 98 104 113 177 184 174 171 153 183 168 154 174 155 228 123 112 163 157 165 185 144 122 207 241 142 159 159 155 141 137 133 124 153 235 262 286 277 273 270 264 261 275
65 99 132 129 159 200 156 171 274 170 152 162 147 153 148 143 139 134 152 166 178 122 144 201 223 179 157 145 133 125 128 129 130 136 148 124 268 333 200 271 269 285 287 280
139 145 152 164 156 222 158 191 192 203 151 167 171 160 148 151 132 126 131 110 156 155 163 226 234 191 155 134 115 122 153 150 150 159 163 187 249 278 288 256 267 274 293 304
65 43 184 196 202 82 196 268 290 245 288 152 145 130 147 124 121 141 113 151 171 188 207 217 164 144 143 141 130 137 151 167 167 162 155 179 213 210 283 287 290 292 310 353
60 34 67 333 67 268 26 70 299 357 289 146 142 173 148 153 147 136 182 150 191 223 208 159 129 128 132 124 132 158 153 171 172 159 153 167 166 175 217 307 333 333 18 37
67 23 111 117 51 6 236 162 24 346 291 166 148 141 160 104 115 167 193 194 204 166 107 16 76 125 130 128 148 155 158 151 145 117 113 145 148 105 80 40 302 344 26 46